Time,TemperatureF,DewpointF,PressureIn,WindDirection,WindDirectionDegrees,WindSpeedMPH,WindSpeedGustMPH,Humidity,HourlyPrecipIn,Conditions,Clouds,dailyrainin,SoftwareType,DateUTC
2013-02-02 00:01:00,0.6,-3.1,30.16,NE,35,0.0,0.0,84,0.00,,SKC,0.00,VWS V14.01,2013-02-02 06:01:00,
2013-02-02 00:06:00,0.6,-3.1,30.16,NE,35,0.0,1.0,84,0.00,,SKC,0.00,VWS V14.01,2013-02-02 06:06:00,
2013-02-02 00:11:00,0.6,-3.1,30.16,NE,35,0.0,1.0,84,0.00,,SKC,0.00,VWS V14.01,2013-02-02 06:11:00,
2013-02-02 00:16:00,0.6,-3.1,30.16,NE,35,0.0,1.0,84,0.00,,SKC,0.00,VWS V14.01,2013-02-02 06:16:00,
2013-02-02 00:21:00,0.6,-3.1,30.16,NE,35,0.0,1.0,84,0.00,,SKC,0.00,VWS V14.01,2013-02-02 06:21:00,
2013-02-02 00:26:00,0.6,-3.1,30.16,NE,35,0.0,1.0,84,0.00,,SKC,0.00,VWS V14.01,2013-02-02 06:26:00,
2013-02-02 00:31:00,0.6,-3.1,30.16,NE,35,0.0,0.0,84,0.00,,SKC,0.00,VWS V14.01,2013-02-02 06:31:00,
2013-02-02 00:36:00,0.6,-3.1,30.16,NE,35,0.0,0.0,84,0.00,,SKC,0.00,VWS V14.01,2013-02-02 06:36:00,
2013-02-02 00:41:00,0.6,-3.1,30.16,NE,35,0.0,1.0,84,0.00,,SKC,0.00,VWS V14.01,2013-02-02 06:41:00,
2013-02-02 00:46:00,0.6,-3.1,30.16,NE,35,0.0,1.0,84,0.00,,SKC,0.00,VWS V14.01,2013-02-02 06:46:00,
2013-02-02 00:51:00,0.6,-3.1,30.16,NE,35,0.0,1.0,84,0.00,,SKC,0.00,VWS V14.01,2013-02-02 06:51:00,
2013-02-02 00:56:00,0.6,-3.1,30.16,NNW,339,0.0,2.0,84,0.00,,SKC,0.00,VWS V14.01,2013-02-02 06:56:00,
2013-02-02 01:01:00,0.6,-3.1,30.17,NNW,339,0.0,0.0,84,0.00,,SKC,0.00,VWS V14.01,2013-02-02 07:01:00,
2013-02-02 01:06:00,0.6,-3.1,30.16,NNW,339,0.0,2.0,84,0.00,,SKC,0.00,VWS V14.01,2013-02-02 07:06:00,
2013-02-02 01:11:00,0.6,-3.1,30.16,NNW,339,0.0,2.0,84,0.00,,SKC,0.00,VWS V14.01,2013-02-02 07:11:00,
2013-02-02 01:16:00,0.6,-3.1,30.17,NNW,339,0.0,2.0,84,0.00,,SKC,0.00,VWS V14.01,2013-02-02 07:16:00,
2013-02-02 01:21:00,0.6,-3.1,30.17,NNW,339,0.0,2.0,84,0.00,,SKC,0.00,VWS V14.01,2013-02-02 07:21:00,
2013-02-02 01:26:00,0.6,-3.1,30.17,NW,317,0.0,2.0,84,0.00,,SKC,0.00,VWS V14.01,2013-02-02 07:26:00,
2013-02-02 01:31:00,0.6,-3.1,30.17,NW,318,0.0,1.0,84,0.00,,SKC,0.00,VWS V14.01,2013-02-02 07:31:00,
2013-02-02 01:35:00,0.5,-3.2,30.17,NW,318,0.0,1.0,84,0.00,,SKC,0.00,VWS V14.01,2013-02-02 07:35:00,
2013-02-02 01:40:00,0.6,-3.1,30.17,NW,318,0.0,1.0,84,0.00,,SKC,0.00,VWS V14.01,2013-02-02 07:40:00,
2013-02-02 01:45:00,0.6,-3.1,30.17,NW,318,0.0,1.0,84,0.00,,SKC,0.00,VWS V14.01,2013-02-02 07:45:00,
2013-02-02 01:50:00,0.6,-3.1,30.17,NW,318,0.0,1.0,84,0.00,,SKC,0.00,VWS V14.01,2013-02-02 07:50:00,
2013-02-02 01:55:00,0.6,-3.1,30.17,NW,318,0.0,1.0,84,0.00,,SKC,0.00,VWS V14.01,2013-02-02 07:55:00,
2013-02-02 02:00:00,0.6,-3.1,30.17,NW,318,0.0,0.0,84,0.00,,SKC,0.00,VWS V14.01,2013-02-02 08:00:00,
2013-02-02 02:05:00,0.5,-3.2,30.17,NW,318,0.0,0.0,84,0.00,,SKC,0.00,VWS V14.01,2013-02-02 08:05:00,
2013-02-02 02:10:00,0.6,-3.1,30.17,NW,318,0.0,0.0,84,0.00,,SKC,0.00,VWS V14.01,2013-02-02 08:10:00,
2013-02-02 02:15:00,0.6,-3.1,30.18,NW,318,0.0,2.0,84,0.00,,SKC,0.00,VWS V14.01,2013-02-02 08:15:00,
2013-02-02 02:20:00,0.6,-3.1,30.18,NW,318,0.0,2.0,84,0.00,,SKC,0.00,VWS V14.01,2013-02-02 08:20:00,
2013-02-02 02:25:00,0.6,-3.1,30.18,NW,318,0.0,2.0,84,0.00,,SKC,0.00,VWS V14.01,2013-02-02 08:25:00,
2013-02-02 02:30:00,0.6,-3.1,30.18,NW,318,0.0,0.0,84,0.00,,SKC,0.00,VWS V14.01,2013-02-02 08:30:00,
2013-02-02 02:35:00,0.6,-3.1,30.18,WNW,294,1.0,2.0,84,0.00,,SKC,0.00,VWS V14.01,2013-02-02 08:35:00,
2013-02-02 02:40:00,0.6,-3.1,30.18,WNW,294,0.0,2.0,84,0.00,,SKC,0.00,VWS V14.01,2013-02-02 08:40:00,
2013-02-02 02:45:00,0.6,-3.3,30.18,WNW,294,0.0,4.0,83,0.00,,SKC,0.00,VWS V14.01,2013-02-02 08:45:00,
2013-02-02 02:50:00,0.6,-3.3,30.18,WNW,294,0.0,4.0,83,0.00,,SKC,0.00,VWS V14.01,2013-02-02 08:50:00,
2013-02-02 02:55:00,0.5,-3.4,30.19,WNW,294,0.0,4.0,83,0.00,,SKC,0.00,VWS V14.01,2013-02-02 08:55:00,
2013-02-02 03:00:00,0.5,-3.4,30.18,WNW,288,0.0,2.0,83,0.00,,SKC,0.00,VWS V14.01,2013-02-02 09:00:00,
2013-02-02 03:05:00,0.5,-3.2,30.19,WNW,292,0.0,2.0,84,0.00,,SKC,0.00,VWS V14.01,2013-02-02 09:05:00,
2013-02-02 03:10:00,0.5,-3.4,30.19,WNW,292,0.0,2.0,83,0.00,,SKC,0.00,VWS V14.01,2013-02-02 09:10:00,
2013-02-02 03:15:00,0.5,-3.4,30.19,WNW,292,1.0,2.0,83,0.00,,SKC,0.00,VWS V14.01,2013-02-02 09:15:00,
2013-02-02 03:20:00,0.5,-3.4,30.19,WNW,292,0.0,2.0,83,0.00,,SKC,0.00,VWS V14.01,2013-02-02 09:20:00,
2013-02-02 03:25:00,0.5,-3.4,30.19,WNW,302,2.0,4.0,83,0.00,,SKC,0.00,VWS V14.01,2013-02-02 09:25:00,
2013-02-02 03:30:00,0.5,-3.4,30.19,NW,312,1.0,4.0,83,0.00,,SKC,0.00,VWS V14.01,2013-02-02 09:30:00,
2013-02-02 03:35:00,0.5,-3.4,30.19,NW,313,1.0,4.0,83,0.00,,SKC,0.00,VWS V14.01,2013-02-02 09:35:00,
2013-02-02 03:40:00,0.5,-3.4,30.19,NW,312,0.0,4.0,83,0.00,,SKC,0.00,VWS V14.01,2013-02-02 09:40:00,
2013-02-02 03:45:00,0.5,-3.4,30.20,NW,308,0.0,5.0,83,0.00,,SKC,0.00,VWS V14.01,2013-02-02 09:45:00,
2013-02-02 03:50:00,0.5,-3.4,30.20,NW,311,0.0,5.0,83,0.00,,SKC,0.00,VWS V14.01,2013-02-02 09:50:00,
2013-02-02 03:55:00,0.5,-3.4,30.20,NW,311,0.0,5.0,83,0.00,,SKC,0.00,VWS V14.01,2013-02-02 09:55:00,
2013-02-02 04:00:00,0.5,-3.4,30.20,NNW,331,0.0,2.0,83,0.00,,SKC,0.00,VWS V14.01,2013-02-02 10:00:00,
2013-02-02 04:05:00,0.5,-3.4,30.20,NW,316,1.0,2.0,83,0.00,,SKC,0.00,VWS V14.01,2013-02-02 10:05:00,
2013-02-02 04:10:00,0.5,-3.4,30.20,NW,316,0.0,2.0,83,0.00,,SKC,0.00,VWS V14.01,2013-02-02 10:10:00,
2013-02-02 04:15:00,0.5,-3.4,30.20,NW,325,0.0,4.0,83,0.00,,SKC,0.00,VWS V14.01,2013-02-02 10:15:00,
2013-02-02 04:20:00,0.5,-3.4,30.20,NW,325,0.0,4.0,83,0.00,,SKC,0.00,VWS V14.01,2013-02-02 10:20:00,
2013-02-02 04:25:00,0.6,-3.3,30.20,NW,325,0.0,4.0,83,0.00,,SKC,0.00,VWS V14.01,2013-02-02 10:25:00,
2013-02-02 04:30:00,0.6,-3.3,30.21,NNW,333,0.0,5.0,83,0.00,,SKC,0.00,VWS V14.01,2013-02-02 10:30:00,
2013-02-02 04:35:00,0.6,-3.3,30.21,NNW,333,0.0,5.0,83,0.00,,SKC,0.00,VWS V14.01,2013-02-02 10:35:00,
2013-02-02 04:40:00,0.6,-3.3,30.21,NNW,333,0.0,5.0,83,0.00,,SKC,0.00,VWS V14.01,2013-02-02 10:40:00,
2013-02-02 04:45:00,0.6,-3.3,30.20,NW,309,0.0,5.0,83,0.00,,SKC,0.00,VWS V14.01,2013-02-02 10:45:00,
2013-02-02 04:50:00,0.6,-3.3,30.21,NW,309,0.0,5.0,83,0.00,,SKC,0.00,VWS V14.01,2013-02-02 10:50:00,
2013-02-02 04:55:00,0.6,-3.6,30.21,NW,318,0.0,6.0,82,0.00,,SKC,0.00,VWS V14.01,2013-02-02 10:55:00,
2013-02-02 05:00:00,0.5,-3.7,30.21,NW,318,0.0,1.0,82,0.00,,SKC,0.00,VWS V14.01,2013-02-02 11:00:00,
2013-02-02 05:05:00,0.6,-3.6,30.21,NW,312,0.0,2.0,82,0.00,,SKC,0.00,VWS V14.01,2013-02-02 11:05:00,
2013-02-02 05:10:00,0.5,-3.7,30.22,NW,312,0.0,2.0,82,0.00,,SKC,0.00,VWS V14.01,2013-02-02 11:10:00,
2013-02-02 05:15:00,0.5,-3.7,30.22,NW,312,0.0,2.0,82,0.00,,SKC,0.00,VWS V14.01,2013-02-02 11:15:00,
2013-02-02 05:20:00,0.5,-3.7,30.22,NW,312,0.0,2.0,82,0.00,,SKC,0.00,VWS V14.01,2013-02-02 11:20:00,
2013-02-02 05:25:00,0.5,-3.7,30.22,NW,313,2.0,5.0,82,0.00,,SKC,0.00,VWS V14.01,2013-02-02 11:25:00,
2013-02-02 05:30:00,0.5,-3.7,30.22,NW,313,0.0,0.0,82,0.00,,SKC,0.00,VWS V14.01,2013-02-02 11:30:00,
2013-02-02 05:35:00,0.5,-3.7,30.22,NW,313,0.0,1.0,82,0.00,,SKC,0.00,VWS V14.01,2013-02-02 11:35:00,
2013-02-02 05:40:00,0.5,-3.7,30.22,NW,313,1.0,2.0,82,0.00,,SKC,0.00,VWS V14.01,2013-02-02 11:40:00,
2013-02-02 05:45:00,0.4,-3.8,30.23,NW,313,0.0,2.0,82,0.00,,SKC,0.00,VWS V14.01,2013-02-02 11:45:00,
2013-02-02 05:50:00,0.4,-3.8,30.23,NW,313,0.0,2.0,82,0.00,,SKC,0.00,VWS V14.01,2013-02-02 11:50:00,
2013-02-02 05:55:00,0.4,-4.0,30.23,NW,313,0.0,2.0,81,0.00,,SKC,0.00,VWS V14.01,2013-02-02 11:55:00,
2013-02-02 06:00:00,0.4,-4.0,30.23,NW,313,0.0,0.0,81,0.00,,SKC,0.00,VWS V14.01,2013-02-02 12:00:00,
2013-02-02 06:05:00,0.4,-4.0,30.23,NW,304,0.0,0.0,81,0.00,,SKC,0.00,VWS V14.01,2013-02-02 12:05:00,
2013-02-02 06:10:00,0.3,-4.1,30.23,NW,304,0.0,1.0,81,0.00,,SKC,0.00,VWS V14.01,2013-02-02 12:10:00,
2013-02-02 06:15:00,0.3,-4.1,30.23,NW,304,0.0,1.0,81,0.00,,SKC,0.00,VWS V14.01,2013-02-02 12:15:00,
2013-02-02 06:20:00,0.3,-4.1,30.23,NW,304,0.0,1.0,81,0.00,,SKC,0.00,VWS V14.01,2013-02-02 12:20:00,
2013-02-02 06:25:00,0.2,-4.2,30.23,NW,304,0.0,1.0,81,0.00,,SKC,0.00,VWS V14.01,2013-02-02 12:25:00,
2013-02-02 06:30:00,0.2,-4.2,30.23,NW,316,0.0,0.0,81,0.00,,SKC,0.00,VWS V14.01,2013-02-02 12:30:00,
2013-02-02 06:35:00,0.1,-4.3,30.23,NW,314,0.0,2.0,81,0.00,,SKC,0.00,VWS V14.01,2013-02-02 12:35:00,
2013-02-02 06:40:00,0.1,-4.7,30.23,NW,314,0.0,2.0,80,0.00,,SKC,0.00,VWS V14.01,2013-02-02 12:40:00,
2013-02-02 06:45:00,-0.1,-4.8,30.23,NW,314,0.0,2.0,80,0.00,,SKC,0.00,VWS V14.01,2013-02-02 12:45:00,
2013-02-02 06:50:00,-0.3,-5.0,30.23,NW,314,0.0,2.0,80,0.00,,SKC,0.00,VWS V14.01,2013-02-02 12:50:00,
2013-02-02 06:55:00,-0.5,-4.9,30.23,NW,314,0.0,2.0,81,0.00,,SKC,0.00,VWS V14.01,2013-02-02 12:55:00,
2013-02-02 07:00:00,-0.7,-5.1,30.23,NW,314,0.0,0.0,81,0.00,,SKC,0.00,VWS V14.01,2013-02-02 13:00:00,
2013-02-02 07:09:00,-0.8,-5.2,30.23,NW,314,0.0,0.0,81,0.00,,SKC,0.00,VWS V14.01,2013-02-02 13:09:00,
2013-02-02 07:14:00,-1.7,-6.6,30.23,NW,314,0.0,0.0,79,0.00,,SKC,0.00,VWS V14.01,2013-02-02 13:14:00,
2013-02-02 07:19:00,-2.3,-7.2,30.23,NW,314,0.0,0.0,79,0.00,,SKC,0.00,VWS V14.01,2013-02-02 13:19:00,
2013-02-02 07:24:00,-2.9,-7.8,30.23,NW,314,0.0,0.0,79,0.00,,SKC,0.00,VWS V14.01,2013-02-02 13:24:00,
2013-02-02 07:29:00,-3.4,-8.3,30.23,NW,314,0.0,0.0,79,0.00,,SKC,0.00,VWS V14.01,2013-02-02 13:29:00,
2013-02-02 07:34:00,-3.9,-8.5,30.23,NW,314,0.0,0.0,80,0.00,,SKC,0.00,VWS V14.01,2013-02-02 13:34:00,
2013-02-02 07:39:00,-4.3,-8.9,30.24,NW,314,0.0,0.0,80,0.00,,SKC,0.00,VWS V14.01,2013-02-02 13:39:00,
2013-02-02 07:44:00,-4.6,-8.9,30.24,NW,314,0.0,0.0,81,0.00,,SKC,0.00,VWS V14.01,2013-02-02 13:44:00,
2013-02-02 07:49:00,-4.9,-9.2,30.23,NW,314,0.0,0.0,81,0.00,,SKC,0.00,VWS V14.01,2013-02-02 13:49:00,
2013-02-02 07:54:00,-5.2,-9.3,30.23,NW,314,0.0,0.0,82,0.00,,SKC,0.00,VWS V14.01,2013-02-02 13:54:00,
2013-02-02 07:59:00,-5.3,-9.4,30.23,NW,314,0.0,0.0,82,0.00,,SKC,0.00,VWS V14.01,2013-02-02 13:59:00,
2013-02-02 08:04:00,-5.3,-9.1,30.23,NW,314,0.0,0.0,83,0.00,,SKC,0.00,VWS V14.01,2013-02-02 14:04:00,
2013-02-02 08:09:00,-5.2,-8.8,30.24,NW,314,0.0,0.0,84,0.00,,SKC,0.00,VWS V14.01,2013-02-02 14:09:00,
2013-02-02 08:14:00,-4.7,-8.3,30.24,NW,314,0.0,0.0,84,0.00,,SKC,0.00,VWS V14.01,2013-02-02 14:14:00,
2013-02-02 08:19:00,-4.1,-7.5,30.23,NW,314,0.0,0.0,85,0.00,,SKC,0.00,VWS V14.01,2013-02-02 14:19:00,
2013-02-02 08:24:00,-3.3,-6.7,30.24,NW,314,0.0,0.0,85,0.00,,SKC,0.00,VWS V14.01,2013-02-02 14:24:00,
2013-02-02 08:29:00,-2.9,-6.5,30.24,NW,314,0.0,0.0,84,0.00,,SKC,0.00,VWS V14.01,2013-02-02 14:29:00,
2013-02-02 08:34:00,-2.2,-5.8,30.24,NW,314,0.0,0.0,84,0.00,,SKC,0.00,VWS V14.01,2013-02-02 14:34:00,
2013-02-02 08:39:00,-1.7,-5.6,30.24,NW,314,0.0,0.0,83,0.00,,SKC,0.00,VWS V14.01,2013-02-02 14:39:00,
2013-02-02 08:44:00,-1.5,-5.7,30.24,NW,314,0.0,0.0,82,0.00,,SKC,0.00,VWS V14.01,2013-02-02 14:44:00,
2013-02-02 08:49:00,-1.2,-5.3,30.25,NW,314,0.0,0.0,82,0.00,,SKC,0.00,VWS V14.01,2013-02-02 14:49:00,
2013-02-02 08:54:00,-0.7,-4.6,30.25,NW,314,0.0,0.0,83,0.00,,SKC,0.00,VWS V14.01,2013-02-02 14:54:00,
2013-02-02 08:59:00,-0.1,-4.0,30.25,NW,314,0.0,0.0,83,0.00,,SKC,0.00,VWS V14.01,2013-02-02 14:59:00,
2013-02-02 09:04:00,0.5,-3.9,30.25,NW,314,0.0,2.0,81,0.00,,SKC,0.00,VWS V14.01,2013-02-02 15:04:00,
2013-02-02 09:09:00,0.9,-3.8,30.25,NW,314,0.0,4.0,80,0.00,,SKC,0.00,VWS V14.01,2013-02-02 15:09:00,
2013-02-02 09:14:00,1.2,-3.8,30.25,NW,314,0.0,4.0,79,0.00,,SKC,0.00,VWS V14.01,2013-02-02 15:14:00,
2013-02-02 09:19:00,1.5,-3.8,30.24,NW,314,0.0,4.0,78,0.00,,SKC,0.00,VWS V14.01,2013-02-02 15:19:00,
2013-02-02 09:24:00,1.7,-3.8,30.24,NW,314,0.0,4.0,77,0.00,,SKC,0.00,VWS V14.01,2013-02-02 15:24:00,
2013-02-02 09:29:00,2.1,-3.4,30.24,NW,314,0.0,0.0,77,0.00,,SKC,0.00,VWS V14.01,2013-02-02 15:29:00,
2013-02-02 09:34:00,2.4,-4.0,30.24,NW,314,0.0,1.0,74,0.00,,SKC,0.00,VWS V14.01,2013-02-02 15:34:00,
2013-02-02 09:39:00,2.7,-3.7,30.23,NW,314,0.0,2.0,74,0.00,,SKC,0.00,VWS V14.01,2013-02-02 15:39:00,
2013-02-02 09:44:00,3.2,-3.2,30.23,NW,314,0.0,2.0,74,0.00,,SKC,0.00,VWS V14.01,2013-02-02 15:44:00,
2013-02-02 09:49:00,3.7,-3.3,30.23,SW,225,0.0,2.0,72,0.00,,SKC,0.00,VWS V14.01,2013-02-02 15:49:00,
2013-02-02 09:54:00,3.8,-3.5,30.23,SW,225,0.0,2.0,71,0.00,,SKC,0.00,VWS V14.01,2013-02-02 15:54:00,
2013-02-02 09:59:00,4.2,-3.7,30.23,SW,225,0.0,0.0,69,0.00,,SKC,0.00,VWS V14.01,2013-02-02 15:59:00,
2013-02-02 10:04:00,3.8,-4.4,30.23,WNW,302,0.0,5.0,68,0.00,,SKC,0.00,VWS V14.01,2013-02-02 16:04:00,
2013-02-02 10:09:00,3.4,-4.8,30.23,West,263,0.0,5.0,68,0.00,,SKC,0.00,VWS V14.01,2013-02-02 16:09:00,
2013-02-02 10:14:00,3.2,-4.4,30.23,West,263,0.0,5.0,70,0.00,,SKC,0.00,VWS V14.01,2013-02-02 16:14:00,
2013-02-02 10:19:00,3.9,-3.7,30.23,West,263,0.0,5.0,70,0.00,,SKC,0.00,VWS V14.01,2013-02-02 16:19:00,
2013-02-02 10:24:00,5.0,-2.6,30.23,West,263,0.0,5.0,70,0.00,,SKC,0.00,VWS V14.01,2013-02-02 16:24:00,
2013-02-02 10:29:00,5.6,-3.0,30.23,South,169,2.0,4.0,67,0.00,,SKC,0.00,VWS V14.01,2013-02-02 16:29:00,
2013-02-02 10:34:00,5.6,-3.3,30.23,SSE,164,0.0,4.0,66,0.00,,SKC,0.00,VWS V14.01,2013-02-02 16:34:00,
2013-02-02 10:39:00,5.4,-3.5,30.23,SSE,164,0.0,4.0,66,0.00,,SKC,0.00,VWS V14.01,2013-02-02 16:39:00,
2013-02-02 10:44:00,5.2,-3.7,30.23,SSE,164,0.0,4.0,66,0.00,,SKC,0.00,VWS V14.01,2013-02-02 16:44:00,
2013-02-02 10:49:00,5.3,-3.6,30.23,SSE,164,0.0,4.0,66,0.00,,SKC,0.00,VWS V14.01,2013-02-02 16:49:00,
2013-02-02 10:54:00,5.3,-3.6,30.23,SSE,164,0.0,4.0,66,0.00,,SKC,0.00,VWS V14.01,2013-02-02 16:54:00,
2013-02-02 10:59:00,5.4,-3.5,30.23,SE,130,2.0,2.0,66,0.00,,SKC,0.00,VWS V14.01,2013-02-02 16:59:00,
2013-02-02 11:04:00,5.5,-3.4,30.23,SSE,150,0.0,2.0,66,0.00,,SKC,0.00,VWS V14.01,2013-02-02 17:04:00,
2013-02-02 11:09:00,5.7,-3.5,30.23,SSW,201,0.0,4.0,65,0.00,,SKC,0.00,VWS V14.01,2013-02-02 17:09:00,
2013-02-02 11:14:00,6.0,-3.5,30.23,SSE,157,0.0,4.0,64,0.00,,SKC,0.00,VWS V14.01,2013-02-02 17:14:00,
2013-02-02 11:19:00,5.9,-3.6,30.23,SE,136,0.0,5.0,64,0.00,,SKC,0.00,VWS V14.01,2013-02-02 17:19:00,
2013-02-02 11:24:00,5.9,-3.6,30.23,SSE,148,0.0,5.0,64,0.00,,SKC,0.00,VWS V14.01,2013-02-02 17:24:00,
2013-02-02 11:29:00,6.2,-3.3,30.22,SSE,148,0.0,0.0,64,0.00,,SKC,0.00,VWS V14.01,2013-02-02 17:29:00,
2013-02-02 11:34:00,6.3,-3.6,30.22,SW,217,0.0,3.0,63,0.00,,SKC,0.00,VWS V14.01,2013-02-02 17:34:00,
2013-02-02 11:39:00,6.3,-3.6,30.22,WSW,237,1.0,3.0,63,0.00,,SKC,0.00,VWS V14.01,2013-02-02 17:39:00,
2013-02-02 11:44:00,6.1,-3.8,30.21,WSW,238,1.0,3.0,63,0.00,,SKC,0.00,VWS V14.01,2013-02-02 17:44:00,
2013-02-02 11:49:00,5.9,-3.6,30.21,WSW,239,0.0,3.0,64,0.00,,SKC,0.00,VWS V14.01,2013-02-02 17:49:00,
2013-02-02 11:54:00,5.7,-4.2,30.21,WSW,240,0.0,5.0,63,0.00,,SKC,0.00,VWS V14.01,2013-02-02 17:54:00,
2013-02-02 11:59:00,5.6,-3.9,30.20,WSW,245,0.0,0.0,64,0.00,,SKC,0.00,VWS V14.01,2013-02-02 17:59:00,
2013-02-02 12:04:00,5.9,-3.3,30.20,WSW,248,0.0,2.0,65,0.00,,SKC,0.00,VWS V14.01,2013-02-02 18:04:00,
2013-02-02 12:09:00,6.2,-3.0,30.20,West,259,0.0,3.0,65,0.00,,SKC,0.00,VWS V14.01,2013-02-02 18:09:00,
2013-02-02 12:14:00,6.7,-2.5,30.19,SSE,152,0.0,3.0,65,0.00,,SKC,0.00,VWS V14.01,2013-02-02 18:14:00,
2013-02-02 12:19:00,7.0,-3.3,30.19,SSE,152,0.0,3.0,62,0.00,,SKC,0.00,VWS V14.01,2013-02-02 18:19:00,
2013-02-02 12:24:00,7.3,-3.0,30.19,SSE,151,4.0,4.0,62,0.00,,SKC,0.00,VWS V14.01,2013-02-02 18:24:00,
2013-02-02 12:29:00,7.1,-3.2,30.19,WSW,240,0.0,6.0,62,0.00,,SKC,0.00,VWS V14.01,2013-02-02 18:29:00,
2013-02-02 12:34:00,7.3,-2.6,30.19,WSW,238,0.0,4.0,63,0.00,,SKC,0.00,VWS V14.01,2013-02-02 18:34:00,
2013-02-02 12:39:00,7.3,-3.0,30.19,SSE,157,4.0,4.0,62,0.00,,SKC,0.00,VWS V14.01,2013-02-02 18:39:00,
2013-02-02 12:44:00,7.3,-3.0,30.18,WSW,257,4.0,4.0,62,0.00,,SKC,0.00,VWS V14.01,2013-02-02 18:44:00,
2013-02-02 12:49:00,7.1,-2.8,30.18,ESE,107,0.0,6.0,63,0.00,,SKC,0.00,VWS V14.01,2013-02-02 18:49:00,
2013-02-02 12:54:00,6.7,-3.2,30.17,SSE,157,0.0,7.0,63,0.00,,SKC,0.00,VWS V14.01,2013-02-02 18:54:00,
2013-02-02 12:59:00,6.7,-2.9,30.17,ESE,109,5.0,6.0,64,0.00,,SKC,0.00,VWS V14.01,2013-02-02 18:59:00,
2013-02-02 13:04:00,6.8,-2.5,30.17,ESE,107,2.0,6.0,65,0.00,,SKC,0.00,VWS V14.01,2013-02-02 19:04:00,
2013-02-02 13:09:00,6.9,-2.4,30.17,ESE,120,1.0,6.0,65,0.00,,SKC,0.00,VWS V14.01,2013-02-02 19:09:00,
2013-02-02 13:14:00,7.1,-2.2,30.16,WNW,287,4.0,6.0,65,0.00,,SKC,0.00,VWS V14.01,2013-02-02 19:14:00,
2013-02-02 13:19:00,7.4,-2.2,30.17,ESE,122,2.0,6.0,64,0.00,,SKC,0.00,VWS V14.01,2013-02-02 19:19:00,
2013-02-02 13:24:00,7.7,-1.6,30.17,WSW,256,0.0,6.0,65,0.00,,SKC,0.00,VWS V14.01,2013-02-02 19:24:00,
2013-02-02 13:29:00,7.8,-2.2,30.16,East,98,0.0,6.0,63,0.00,,SKC,0.00,VWS V14.01,2013-02-02 19:29:00,
2013-02-02 13:34:00,8.0,-1.6,30.16,South,184,0.0,2.0,64,0.00,,SKC,0.00,VWS V14.01,2013-02-02 19:34:00,
2013-02-02 13:39:00,8.2,-1.5,30.17,ENE,76,0.0,3.0,64,0.00,,SKC,0.00,VWS V14.01,2013-02-02 19:39:00,
2013-02-02 13:44:00,8.6,-1.4,30.17,NNE,32,0.0,3.0,63,0.00,,SKC,0.00,VWS V14.01,2013-02-02 19:44:00,
2013-02-02 13:49:00,8.8,-1.2,30.16,SSE,168,0.0,3.0,63,0.00,,SKC,0.00,VWS V14.01,2013-02-02 19:49:00,
2013-02-02 13:54:00,8.6,-1.7,30.15,ESE,115,0.0,6.0,62,0.00,,SKC,0.00,VWS V14.01,2013-02-02 19:54:00,
2013-02-02 13:59:00,8.5,-1.5,30.13,SE,128,0.0,1.0,63,0.00,,SKC,0.00,VWS V14.01,2013-02-02 19:59:00,
2013-02-02 14:04:00,8.4,-1.6,30.14,SE,138,0.0,4.0,63,0.00,,SKC,0.00,VWS V14.01,2013-02-02 20:04:00,
2013-02-02 14:09:00,8.6,-1.7,30.13,ESE,107,4.0,4.0,62,0.00,,SKC,0.00,VWS V14.01,2013-02-02 20:09:00,
2013-02-02 14:14:00,8.4,-1.6,30.13,ESE,109,1.0,6.0,63,0.00,,SKC,0.00,VWS V14.01,2013-02-02 20:14:00,
2013-02-02 14:19:00,8.4,-1.6,30.12,ESE,111,1.0,6.0,63,0.00,,SKC,0.00,VWS V14.01,2013-02-02 20:19:00,
2013-02-02 14:24:00,8.5,-1.5,30.12,ESE,117,0.0,6.0,63,0.00,,SKC,0.00,VWS V14.01,2013-02-02 20:24:00,
2013-02-02 14:29:00,8.7,-1.3,30.13,SE,141,0.0,6.0,63,0.00,,SKC,0.00,VWS V14.01,2013-02-02 20:29:00,
2013-02-02 14:34:00,8.7,-1.3,30.13,ESE,119,0.0,8.0,63,0.00,,SKC,0.00,VWS V14.01,2013-02-02 20:34:00,
2013-02-02 14:39:00,8.7,-1.3,30.13,ESE,114,0.0,8.0,63,0.00,,SKC,0.00,VWS V14.01,2013-02-02 20:39:00,
2013-02-02 14:44:00,8.9,-1.1,30.13,WSW,238,0.0,8.0,63,0.00,,SKC,0.00,VWS V14.01,2013-02-02 20:44:00,
2013-02-02 14:49:00,9.1,-0.9,30.12,WSW,244,3.0,8.0,63,0.00,,SKC,0.00,VWS V14.01,2013-02-02 20:49:00,
2013-02-02 14:54:00,9.2,-0.8,30.12,East,101,4.0,8.0,63,0.00,,SKC,0.00,VWS V14.01,2013-02-02 20:54:00,
2013-02-02 14:59:00,9.0,-1.0,30.11,ESE,123,4.0,8.0,63,0.00,,SKC,0.00,VWS V14.01,2013-02-02 20:59:00,
2013-02-02 15:04:00,9.0,-0.7,30.12,ESE,105,0.0,6.0,64,0.00,,SKC,0.00,VWS V14.01,2013-02-02 21:04:00,
2013-02-02 15:09:00,9.0,-0.7,30.12,SE,126,0.0,6.0,64,0.00,,SKC,0.00,VWS V14.01,2013-02-02 21:09:00,
2013-02-02 15:14:00,9.1,-0.9,30.12,SE,124,0.0,8.0,63,0.00,,SKC,0.00,VWS V14.01,2013-02-02 21:14:00,
2013-02-02 15:19:00,9.3,-0.4,30.12,SE,125,0.0,8.0,64,0.00,,SKC,0.00,VWS V14.01,2013-02-02 21:19:00,
2013-02-02 15:24:00,9.5,-0.5,30.12,SE,137,2.0,8.0,63,0.00,,SKC,0.00,VWS V14.01,2013-02-02 21:24:00,
2013-02-02 15:29:00,9.3,-0.7,30.12,SSE,167,0.0,8.0,63,0.00,,SKC,0.00,VWS V14.01,2013-02-02 21:29:00,
2013-02-02 15:34:00,9.2,-0.8,30.12,SE,130,0.0,4.0,63,0.00,,SKC,0.00,VWS V14.01,2013-02-02 21:34:00,
2013-02-02 15:39:00,9.2,-0.8,30.11,SE,130,0.0,4.0,63,0.00,,SKC,0.00,VWS V14.01,2013-02-02 21:39:00,
2013-02-02 15:44:00,9.2,-0.5,30.11,West,263,1.0,4.0,64,0.00,,SKC,0.00,VWS V14.01,2013-02-02 21:44:00,
2013-02-02 15:49:00,9.2,-0.5,30.12,SW,225,0.0,4.0,64,0.00,,SKC,0.00,VWS V14.01,2013-02-02 21:49:00,
2013-02-02 15:54:00,9.2,-0.5,30.11,SSW,209,0.0,4.0,64,0.00,,SKC,0.00,VWS V14.01,2013-02-02 21:54:00,
2013-02-02 15:59:00,9.2,-0.5,30.11,ESE,115,1.0,4.0,64,0.00,,SKC,0.00,VWS V14.01,2013-02-02 21:59:00,
2013-02-02 16:04:00,9.1,-0.6,30.11,SE,125,0.0,4.0,64,0.00,,SKC,0.00,VWS V14.01,2013-02-02 22:04:00,
2013-02-02 16:09:00,9.0,-0.7,30.10,ESE,106,1.0,4.0,64,0.00,,SKC,0.00,VWS V14.01,2013-02-02 22:09:00,
2013-02-02 16:14:00,9.0,-0.7,30.10,SE,141,0.0,4.0,64,0.00,,SKC,0.00,VWS V14.01,2013-02-02 22:14:00,
2013-02-02 16:19:00,9.0,-0.7,30.10,SE,141,0.0,4.0,64,0.00,,SKC,0.00,VWS V14.01,2013-02-02 22:19:00,
2013-02-02 16:24:00,9.0,-0.4,30.10,SSE,167,0.0,4.0,65,0.00,,SKC,0.00,VWS V14.01,2013-02-02 22:24:00,
2013-02-02 16:29:00,8.9,-0.4,30.10,ESE,113,0.0,4.0,65,0.00,,SKC,0.00,VWS V14.01,2013-02-02 22:29:00,
2013-02-02 16:34:00,8.8,-0.2,30.10,ESE,113,0.0,0.0,66,0.00,,SKC,0.00,VWS V14.01,2013-02-02 22:34:00,
2013-02-02 16:39:00,8.7,-0.3,30.10,ESE,113,0.0,2.0,66,0.00,,SKC,0.00,VWS V14.01,2013-02-02 22:39:00,
2013-02-02 16:44:00,8.7,-0.3,30.10,ESE,113,0.0,2.0,66,0.00,,SKC,0.00,VWS V14.01,2013-02-02 22:44:00,
2013-02-02 16:49:00,8.6,-0.4,30.10,ESE,113,0.0,2.0,66,0.00,,SKC,0.00,VWS V14.01,2013-02-02 22:49:00,
2013-02-02 16:54:00,8.6,-0.4,30.10,ESE,113,0.0,2.0,66,0.00,,SKC,0.00,VWS V14.01,2013-02-02 22:54:00,
2013-02-02 16:59:00,8.6,-0.1,30.10,ESE,113,0.0,2.0,67,0.00,,SKC,0.00,VWS V14.01,2013-02-02 22:59:00,
2013-02-02 17:04:00,8.6,-0.1,30.10,ESE,113,0.0,2.0,67,0.00,,SKC,0.00,VWS V14.01,2013-02-02 23:04:00,
2013-02-02 17:09:00,8.5,0.1,30.10,ESE,113,0.0,2.0,68,0.00,,SKC,0.00,VWS V14.01,2013-02-02 23:09:00,
2013-02-02 17:14:00,8.5,0.1,30.10,ESE,113,0.0,2.0,68,0.00,,SKC,0.00,VWS V14.01,2013-02-02 23:14:00,
2013-02-02 17:19:00,8.5,0.1,30.09,ESE,113,0.0,2.0,68,0.00,,SKC,0.00,VWS V14.01,2013-02-02 23:19:00,
2013-02-02 17:24:00,8.4,0.0,30.08,ESE,113,0.0,2.0,68,0.00,,SKC,0.00,VWS V14.01,2013-02-02 23:24:00,
2013-02-02 17:29:00,8.3,0.2,30.08,ESE,113,0.0,4.0,69,0.00,,SKC,0.00,VWS V14.01,2013-02-02 23:29:00,
2013-02-02 17:34:00,8.3,0.2,30.08,ESE,113,0.0,1.0,69,0.00,,SKC,0.00,VWS V14.01,2013-02-02 23:34:00,
2013-02-02 17:39:00,8.2,0.4,30.08,ESE,113,0.0,2.0,70,0.00,,SKC,0.00,VWS V14.01,2013-02-02 23:39:00,
2013-02-02 17:44:00,8.2,0.8,30.08,ESE,113,0.0,2.0,71,0.00,,SKC,0.00,VWS V14.01,2013-02-02 23:44:00,
2013-02-02 17:49:00,8.1,1.0,30.08,ESE,113,0.0,2.0,72,0.00,,SKC,0.00,VWS V14.01,2013-02-02 23:49:00,
2013-02-02 17:54:00,8.0,1.5,30.08,ESE,113,0.0,2.0,74,0.00,,SKC,0.00,VWS V14.01,2013-02-02 23:54:00,
2013-02-02 17:59:00,8.0,1.7,30.08,ESE,113,0.0,2.0,75,0.00,,SKC,0.00,VWS V14.01,2013-02-02 23:59:00,
2013-02-02 18:04:00,7.8,1.8,30.08,ESE,113,0.0,1.0,76,0.00,,SKC,0.00,VWS V14.01,2013-02-03 00:04:00,
2013-02-02 18:09:00,7.7,2.3,30.08,ESE,113,0.0,1.0,78,0.00,,SKC,0.00,VWS V14.01,2013-02-03 00:09:00,
2013-02-02 18:14:00,7.6,2.2,30.08,ESE,113,0.0,1.0,78,0.00,,SKC,0.00,VWS V14.01,2013-02-03 00:14:00,
2013-02-02 18:19:00,7.6,2.5,30.08,ESE,113,0.0,1.0,79,0.00,,SKC,0.00,VWS V14.01,2013-02-03 00:19:00,
2013-02-02 18:24:00,7.5,2.6,30.08,ESE,113,1.0,1.0,80,0.00,,SKC,0.00,VWS V14.01,2013-02-03 00:24:00,
2013-02-02 18:29:00,7.5,2.9,30.07,ESE,113,0.0,1.0,81,0.00,,SKC,0.00,VWS V14.01,2013-02-03 00:29:00,
2013-02-02 18:34:00,7.4,3.1,30.07,ESE,113,0.0,1.0,82,0.00,,SKC,0.00,VWS V14.01,2013-02-03 00:34:00,
2013-02-02 18:39:00,7.3,3.0,30.07,ESE,113,0.0,1.0,82,0.00,,SKC,0.00,VWS V14.01,2013-02-03 00:39:00,
2013-02-02 18:44:00,7.3,3.2,30.07,ESE,113,0.0,1.0,83,0.00,,SKC,0.00,VWS V14.01,2013-02-03 00:44:00,
2013-02-02 18:49:00,7.2,3.1,30.06,ESE,113,0.0,1.0,83,0.00,,SKC,0.00,VWS V14.01,2013-02-03 00:49:00,
2013-02-02 18:54:00,7.2,3.4,30.05,ESE,113,2.0,2.0,84,0.00,,SKC,0.00,VWS V14.01,2013-02-03 00:54:00,
2013-02-02 18:59:00,7.2,3.4,30.06,ESE,113,0.0,2.0,84,0.00,,SKC,0.00,VWS V14.01,2013-02-03 00:59:00,
2013-02-02 19:04:00,7.1,3.3,30.06,ESE,113,0.0,2.0,84,0.00,,SKC,0.00,VWS V14.01,2013-02-03 01:04:00,
2013-02-02 19:09:00,7.1,3.3,30.06,ESE,113,0.0,2.0,84,0.00,,SKC,0.00,VWS V14.01,2013-02-03 01:09:00,
2013-02-02 19:14:00,7.1,3.3,30.06,ESE,113,0.0,2.0,84,0.00,,SKC,0.00,VWS V14.01,2013-02-03 01:14:00,
2013-02-02 19:19:00,7.2,3.7,30.06,ESE,113,0.0,2.0,85,0.00,,SKC,0.00,VWS V14.01,2013-02-03 01:19:00,
2013-02-02 19:24:00,7.2,3.7,30.06,ESE,113,0.0,2.0,85,0.00,,SKC,0.00,VWS V14.01,2013-02-03 01:24:00,
2013-02-02 19:29:00,7.2,3.7,30.06,ESE,113,0.0,2.0,85,0.00,,SKC,0.00,VWS V14.01,2013-02-03 01:29:00,
2013-02-02 19:34:00,7.2,3.7,30.06,ESE,113,0.0,0.0,85,0.00,,SKC,0.00,VWS V14.01,2013-02-03 01:34:00,
2013-02-02 19:39:00,7.2,3.7,30.06,ESE,113,0.0,0.0,85,0.00,,SKC,0.00,VWS V14.01,2013-02-03 01:39:00,
2013-02-02 19:44:00,7.2,3.7,30.05,ESE,113,0.0,0.0,85,0.00,,SKC,0.00,VWS V14.01,2013-02-03 01:44:00,
2013-02-02 19:49:00,7.2,3.7,30.05,ESE,113,0.0,0.0,85,0.00,,SKC,0.00,VWS V14.01,2013-02-03 01:49:00,
2013-02-02 19:54:00,7.1,3.5,30.06,ESE,113,0.0,0.0,85,0.00,,SKC,0.00,VWS V14.01,2013-02-03 01:54:00,
2013-02-02 19:59:00,7.2,3.7,30.05,ESE,113,0.0,0.0,85,0.00,,SKC,0.00,VWS V14.01,2013-02-03 01:59:00,
2013-02-02 20:04:00,7.2,3.7,30.05,ESE,113,0.0,0.0,85,0.00,,SKC,0.00,VWS V14.01,2013-02-03 02:04:00,
2013-02-02 20:09:00,7.2,3.7,30.05,ESE,113,0.0,0.0,85,0.00,,SKC,0.00,VWS V14.01,2013-02-03 02:09:00,
2013-02-02 20:14:00,7.2,3.7,30.05,ESE,113,0.0,0.0,85,0.00,,SKC,0.00,VWS V14.01,2013-02-03 02:14:00,
2013-02-02 20:19:00,7.2,3.7,30.05,ESE,113,0.0,0.0,85,0.00,,SKC,0.00,VWS V14.01,2013-02-03 02:19:00,
2013-02-02 20:24:00,7.2,3.7,30.05,ESE,113,0.0,0.0,85,0.00,,SKC,0.00,VWS V14.01,2013-02-03 02:24:00,
2013-02-02 20:29:00,7.2,3.7,30.04,ESE,113,0.0,0.0,85,0.00,,SKC,0.00,VWS V14.01,2013-02-03 02:29:00,
2013-02-02 20:34:00,7.2,3.9,30.04,ESE,113,0.0,0.0,86,0.00,,SKC,0.00,VWS V14.01,2013-02-03 02:34:00,
2013-02-02 20:39:00,7.3,4.0,30.04,ESE,113,0.0,0.0,86,0.00,,SKC,0.00,VWS V14.01,2013-02-03 02:39:00,
2013-02-02 20:44:00,7.3,4.0,30.04,ESE,113,0.0,0.0,86,0.00,,SKC,0.00,VWS V14.01,2013-02-03 02:44:00,
2013-02-02 20:49:00,7.3,4.0,30.04,ESE,113,0.0,0.0,86,0.00,,SKC,0.00,VWS V14.01,2013-02-03 02:49:00,
2013-02-02 20:54:00,7.4,4.1,30.04,ESE,113,0.0,0.0,86,0.00,,SKC,0.00,VWS V14.01,2013-02-03 02:54:00,
2013-02-02 20:59:00,7.4,4.1,30.04,ESE,113,0.0,0.0,86,0.00,,SKC,0.00,VWS V14.01,2013-02-03 02:59:00,
2013-02-02 21:04:00,7.4,4.1,30.04,ESE,113,0.0,0.0,86,0.00,,SKC,0.00,VWS V14.01,2013-02-03 03:04:00,
2013-02-02 21:09:00,7.4,4.1,30.04,ESE,113,0.0,0.0,86,0.00,,SKC,0.00,VWS V14.01,2013-02-03 03:09:00,
2013-02-02 21:14:00,7.4,4.1,30.04,ESE,113,0.0,0.0,86,0.00,,SKC,0.00,VWS V14.01,2013-02-03 03:14:00,
2013-02-02 21:19:00,7.4,4.1,30.04,ESE,113,0.0,0.0,86,0.00,,SKC,0.00,VWS V14.01,2013-02-03 03:19:00,
2013-02-02 21:24:00,7.4,4.1,30.04,ESE,113,0.0,0.0,86,0.00,,SKC,0.00,VWS V14.01,2013-02-03 03:24:00,
2013-02-02 21:29:00,7.4,4.1,30.04,ESE,113,0.0,0.0,86,0.00,,SKC,0.00,VWS V14.01,2013-02-03 03:29:00,
2013-02-02 21:34:00,7.5,4.2,30.04,ESE,113,0.0,0.0,86,0.00,,SKC,0.00,VWS V14.01,2013-02-03 03:34:00,
2013-02-02 21:39:00,7.5,4.2,30.03,ESE,113,0.0,0.0,86,0.00,,SKC,0.00,VWS V14.01,2013-02-03 03:39:00,
2013-02-02 21:44:00,7.5,4.2,30.03,ESE,113,0.0,0.0,86,0.00,,SKC,0.00,VWS V14.01,2013-02-03 03:44:00,
2013-02-02 21:49:00,7.5,4.2,30.03,ESE,113,0.0,0.0,86,0.00,,SKC,0.00,VWS V14.01,2013-02-03 03:49:00,
2013-02-02 21:54:00,7.5,4.2,30.03,ESE,113,0.0,0.0,86,0.00,,SKC,0.00,VWS V14.01,2013-02-03 03:54:00,
2013-02-02 21:59:00,7.5,4.2,30.03,ESE,113,0.0,0.0,86,0.00,,SKC,0.00,VWS V14.01,2013-02-03 03:59:00,
2013-02-02 22:04:00,7.5,4.2,30.03,ESE,113,0.0,0.0,86,0.00,,SKC,0.00,VWS V14.01,2013-02-03 04:04:00,
2013-02-02 22:09:00,7.6,4.3,30.04,ESE,113,0.0,0.0,86,0.00,,SKC,0.00,VWS V14.01,2013-02-03 04:09:00,
2013-02-02 22:14:00,7.6,4.3,30.04,ESE,113,0.0,0.0,86,0.00,,SKC,0.00,VWS V14.01,2013-02-03 04:14:00,
2013-02-02 22:19:00,7.6,4.3,30.03,ESE,113,0.0,0.0,86,0.00,,SKC,0.00,VWS V14.01,2013-02-03 04:19:00,
2013-02-02 22:24:00,7.6,4.3,30.03,ESE,113,0.0,0.0,86,0.00,,SKC,0.00,VWS V14.01,2013-02-03 04:24:00,
2013-02-02 22:29:00,7.6,4.3,30.03,ESE,113,0.0,0.0,86,0.00,,SKC,0.00,VWS V14.01,2013-02-03 04:29:00,
2013-02-02 22:34:00,7.6,4.3,30.03,ESE,113,0.0,0.0,86,0.00,,SKC,0.00,VWS V14.01,2013-02-03 04:34:00,
2013-02-02 22:39:00,7.6,4.3,30.03,ESE,113,0.0,0.0,86,0.00,,SKC,0.00,VWS V14.01,2013-02-03 04:39:00,
2013-02-02 22:44:00,7.7,4.4,30.03,ESE,113,0.0,0.0,86,0.00,,SKC,0.00,VWS V14.01,2013-02-03 04:44:00,
2013-02-02 22:49:00,7.7,4.4,30.03,ESE,113,0.0,0.0,86,0.00,,SKC,0.00,VWS V14.01,2013-02-03 04:49:00,
2013-02-02 22:54:00,7.7,4.4,30.03,ESE,113,0.0,0.0,86,0.00,,SKC,0.00,VWS V14.01,2013-02-03 04:54:00,
2013-02-02 22:59:00,7.7,4.4,30.03,ESE,113,0.0,0.0,86,0.00,,SKC,0.00,VWS V14.01,2013-02-03 04:59:00,
2013-02-02 23:00:00,7.7,4.4,30.03,ESE,113,0.0,0.0,86,0.00,,SKC,0.00,VWS V14.01,2013-02-03 05:00:00,
2013-02-02 23:05:00,7.7,4.4,30.03,ESE,113,0.0,0.0,86,0.00,,SKC,0.00,VWS V14.01,2013-02-03 05:05:00,
2013-02-02 23:10:00,7.7,4.4,30.03,ESE,113,0.0,0.0,86,0.00,,SKC,0.00,VWS V14.01,2013-02-03 05:10:00,
2013-02-02 23:15:00,7.7,4.4,30.03,ESE,113,0.0,0.0,86,0.00,,SKC,0.00,VWS V14.01,2013-02-03 05:15:00,
2013-02-02 23:20:00,7.7,4.7,30.02,ESE,113,0.0,1.0,87,0.00,,SKC,0.00,VWS V14.01,2013-02-03 05:20:00,
2013-02-02 23:25:00,7.7,4.4,30.03,ESE,113,0.0,1.0,86,0.00,,SKC,0.00,VWS V14.01,2013-02-03 05:25:00,
2013-02-02 23:30:00,7.7,4.4,30.03,ESE,113,0.0,0.0,86,0.00,,SKC,0.00,VWS V14.01,2013-02-03 05:30:00,
2013-02-02 23:35:00,7.7,4.4,30.03,ESE,113,0.0,0.0,86,0.00,,SKC,0.00,VWS V14.01,2013-02-03 05:35:00,
2013-02-02 23:40:00,7.7,4.4,30.04,ESE,113,1.0,1.0,86,0.00,,SKC,0.00,VWS V14.01,2013-02-03 05:40:00,
2013-02-02 23:45:00,7.7,4.4,30.04,ESE,113,0.0,1.0,86,0.00,,SKC,0.00,VWS V14.01,2013-02-03 05:45:00,
2013-02-02 23:50:00,7.7,4.4,30.03,WSW,237,0.0,2.0,86,0.00,,SKC,0.00,VWS V14.01,2013-02-03 05:50:00,
2013-02-02 23:55:00,7.7,4.4,30.03,WSW,237,0.0,2.0,86,0.00,,SKC,0.00,VWS V14.01,2013-02-03 05:55:00,